DW8937 Weather Reports


Display with metric or nautical units.
time (UTC)temp
F
wind
direction
speed
MPH
gust
MPH
rain 1hr
in
rain 24hr
in
rain mn
in
humidity
%
barometer
mb
20180922045205 57 194 10.0 20.0 0.00 0.02 0.02 71 997.1
20180922044704 57 219 9.0 19.0 0.00 0.02 0.02 71 997.0
20180922044206 57 199 9.0 19.0 0.00 0.02 0.02 72 997.0
20180922043704 57 223 9.0 19.0 0.00 0.02 0.02 71 996.8
20180922043204 57 216 9.0 19.0 0.00 0.02 0.02 71 997.1
20180922042704 57 207 10.0 20.0 0.00 0.02 0.02 70 997.2
20180922042205 58 254 11.0 24.0 0.00 0.02 0.02 68 996.8
20180922041705 58 252 12.0 24.0 0.00 0.02 0.02 66 996.8
20180922041205 58 234 13.0 20.0 0.00 0.02 0.02 68 996.9
20180922040704 59 247 11.0 20.0 0.00 0.02 0.02 68 996.8
20180922040204 59 219 9.0 18.0 0.01 0.02 0.02 71 997.1
20180922035705 59 238 9.0 18.0 0.01 0.02 0.02 72 996.9
20180922035205 59 248 9.0 20.0 0.02 0.02 0.02 72 996.8
20180922034705 59 246 9.0 20.0 0.02 0.02 0.02 72 996.6
20180922034204 59 234 10.0 20.0 0.02 0.02 0.02 73 996.7
20180922033704 59 225 11.0 20.0 0.02 0.02 0.02 72 996.7
20180922033205 59 235 11.0 22.0 0.02 0.02 0.02 73 996.8
20180922032204 59 250 10.0 22.0 0.02 0.02 0.02 75 996.6
20180922031704 59 234 10.0 22.0 0.02 0.02 0.02 76 996.7
20180922031205 59 243 8.0 16.0 0.02 0.02 0.02 77 996.7
20180922030704 59 237 9.0 16.0 0.02 0.02 0.02 77 996.8
20180922030205 59 261 8.0 25.0 0.01 0.02 0.02 77 996.8
20180922025704 59 225 7.0 25.0 0.01 0.01 0.01 77 996.7
20180922025205 59 230 10.0 23.0 0.00 0.01 0.01 77 996.7
20180922024704 60 238 13.0 23.0 0.00 0.00 0.00 75 997.0
20180922024204 60 272 12.0 21.0 0.00 0.00 0.00 74 996.9
20180922023704 61 269 11.0 21.0 0.00 0.00 0.00 73 996.8
20180922023204 62 271 10.0 22.0 0.00 0.00 0.00 72 996.6
20180922022704 62 288 11.0 22.0 0.00 0.00 0.00 71 996.6
20180922022205 64 262 10.0 16.0 0.00 0.00 0.00 69 996.5
20180922021705 66 244 8.0 16.0 0.00 0.00 0.00 64 996.2
20180922021204 66 191 8.0 18.0 0.00 0.00 0.00 64 995.8
20180922020705 66 232 8.0 18.0 0.00 0.00 0.00 64 995.8
20180922020205 66 192 8.0 18.0 0.00 0.00 0.00 64 995.8
20180922015705 66 173 8.0 18.0 0.00 0.00 0.00 64 995.9
20180922015206 66 170 8.0 18.0 0.00 0.00 0.00 64 995.9
20180922014704 66 198 9.0 18.0 0.00 0.00 0.00 64 995.8
20180922014204 66 202 9.0 15.0 0.00 0.00 0.00 64 995.8
20180922013704 66 184 8.0 15.0 0.00 0.00 0.00 65 995.8
20180922013204 66 185 9.0 14.0 0.00 0.00 0.00 65 995.9
20180922012704 66 175 8.0 14.0 0.00 0.00 0.00 65 995.8
20180922012204 66 186 7.0 15.0 0.00 0.00 0.00 64 995.8
20180922011705 66 187 8.0 15.0 0.00 0.00 0.00 64 995.8
20180922011206 66 175 8.0 20.0 0.00 0.00 0.00 64 995.9
20180922010705 66 173 9.0 20.0 0.00 0.00 0.00 64 995.9
20180922010204 66 174 9.0 20.0 0.00 0.00 0.00 64 995.8
20180922005704 66 173 9.0 17.0 0.00 0.00 0.00 64 995.9
20180922005204 66 179 9.0 22.0 0.00 0.00 0.00 64 996.0
20180922004704 66 194 9.0 22.0 0.00 0.00 0.00 63 996.1
20180922004204 66 165 9.0 22.0 0.00 0.00 0.00 63 996.1
20180922003705 66 155 9.0 18.0 0.00 0.00 0.00 63 996.0
20180922003205 67 180 9.0 17.0 0.00 0.00 0.00 63 996.1
20180922002704 67 188 9.0 20.0 0.00 0.00 0.00 63 996.2
20180922002204 67 195 10.0 20.0 0.00 0.00 0.00 62 996.2
20180922001704 67 187 9.0 20.0 0.00 0.00 0.00 62 996.4
20180922001204 67 168 9.0 22.0 0.00 0.00 0.00 62 996.3
20180922000704 67 184 11.0 22.0 0.00 0.00 0.00 62 996.3
20180922000204 67 194 11.0 22.0 0.00 0.00 0.00 62 996.4
20180921235704 67 193 10.0 20.0 0.00 0.00 0.00 62 996.5
20180921235205 67 181 10.0 19.0 0.00 0.00 0.00 62 996.6
20180921234705 67 212 9.0 19.0 0.00 0.00 0.00 62 996.7
20180921234204 68 174 10.0 22.0 0.00 0.00 0.00 61 996.8
20180921233704 68 160 11.0 22.0 0.00 0.00 0.00 61 996.9
20180921233205 68 161 12.0 22.0 0.00 0.00 0.00 61 996.9
20180921232704 68 172 11.0 21.0 0.00 0.00 0.00 61 997.0
20180921232205 68 157 11.0 21.0 0.00 0.00 0.00 61 997.0
20180921231704 68 172 11.0 21.0 0.00 0.00 0.00 61 997.1
20180921231204 68 176 10.0 19.0 0.00 0.00 0.00 61 997.2
20180921230704 68 163 10.0 24.0 0.00 0.00 0.00 61 997.2
20180921230204 69 153 10.0 24.0 0.00 0.00 0.00 61 997.4
20180921225705 69 178 10.0 24.0 0.00 0.00 0.00 61 997.5
20180921225204 69 173 10.0 17.0 0.00 0.00 0.00 60 997.6
20180921224704 69 181 11.0 24.0 0.00 0.00 0.00 60 997.8
20180921224204 69 196 12.0 24.0 0.00 0.00 0.00 60 997.9
20180921223704 69 174 12.0 21.0 0.00 0.00 0.00 60 998.0
20180921223204 69 165 11.0 22.0 0.00 0.00 0.00 60 998.1
20180921222704 69 163 11.0 22.0 0.00 0.00 0.00 60 998.2
20180921222205 69 178 12.0 21.0 0.00 0.00 0.00 60 998.3
20180921221705 69 170 12.0 21.0 0.00 0.00 0.00 60 998.3
20180921221204 69 167 11.0 22.0 0.00 0.00 0.00 60 998.5
20180921220705 69 189 11.0 26.0 0.00 0.00 0.00 60 998.6
20180921220205 69 165 11.0 26.0 0.00 0.00 0.00 60 998.6
20180921215704 70 190 11.0 26.0 0.00 0.00 0.00 60 998.8
20180921215205 70 169 11.0 23.0 0.00 0.00 0.00 60 999.0
20180921214705 70 191 11.0 23.0 0.00 0.00 0.00 60 999.1
20180921214204 70 157 10.0 22.0 0.00 0.00 0.00 60 999.1
20180921213704 70 172 11.0 22.0 0.00 0.00 0.00 60 999.3
20180921213205 70 172 12.0 24.0 0.00 0.00 0.00 60 999.3
20180921212704 71 161 12.0 24.0 0.00 0.00 0.00 60 999.4
20180921212204 71 209 13.0 24.0 0.00 0.00 0.00 60 999.4
20180921211705 71 172 13.0 28.0 0.00 0.00 0.00 60 999.5
20180921211205 71 167 12.0 28.0 0.00 0.00 0.00 60 999.7
20180921210704 71 180 13.0 26.0 0.00 0.00 0.00 60 999.7
20180921210204 71 169 12.0 22.0 0.00 0.00 0.00 60 999.7
20180921205705 71 181 11.0 22.0 0.00 0.00 0.00 61 999.8
20180921205204 71 155 11.0 22.0 0.00 0.00 0.00 61 999.7
20180921204705 71 167 11.0 19.0 0.00 0.00 0.00 61 999.9
20180921204204 71 161 11.0 19.0 0.00 0.00 0.00 61 999.9
20180921203704 71 170 10.0 19.0 0.00 0.00 0.00 62 1000.0
20180921203204 71 166 10.0 17.0 0.00 0.00 0.00 62 1000.1
20180921202704 71 182 10.0 17.0 0.00 0.00 0.00 62 1000.2
20180921202205 70 191 9.0 21.0 0.00 0.00 0.00 62 1000.2
20180921201704 70 173 10.0 21.0 0.00 0.00 0.00 63 1000.3
20180921201204 70 145 11.0 21.0 0.00 0.00 0.00 63 1000.3
20180921200705 70 194 12.0 19.0 0.00 0.00 0.00 64 1000.3
20180921200205 70 178 11.0 21.0 0.00 0.00 0.00 64 1000.3
20180921195705 70 158 11.0 21.0 0.00 0.00 0.00 65 1000.5
20180921195205 70 161 11.0 21.0 0.00 0.00 0.00 65 1000.4
20180921194705 70 178 10.0 19.0 0.00 0.00 0.00 66 1000.8
20180921194204 69 143 10.0 18.0 0.00 0.00 0.00 66 1000.8
20180921193704 69 172 9.0 19.0 0.00 0.00 0.00 66 1000.8
20180921193204 69 146 10.0 21.0 0.00 0.00 0.00 67 1000.9
20180921192704 69 169 11.0 21.0 0.00 0.00 0.00 67 1000.9
20180921192204 69 159 10.0 21.0 0.00 0.00 0.00 67 1000.9
20180921191704 69 164 10.0 18.0 0.00 0.00 0.00 67 1001.0
20180921191205 69 138 11.0 18.0 0.00 0.00 0.00 67 1001.1
20180921190704 69 178 10.0 17.0 0.00 0.00 0.00 67 1001.1
20180921190205 69 171 9.0 16.0 0.00 0.00 0.00 67 1001.2
20180921185704 69 155 9.0 18.0 0.00 0.00 0.00 67 1001.3
20180921185205 69 161 9.0 18.0 0.00 0.00 0.00 67 1001.3
20180921184704 69 136 9.0 15.0 0.00 0.00 0.00 67 1001.4
20180921184205 69 161 10.0 17.0 0.00 0.00 0.00 67 1001.5
20180921183704 69 160 10.0 19.0 0.00 0.00 0.00 67 1001.5
20180921183205 69 150 9.0 19.0 0.00 0.00 0.00 67 1001.6
20180921182704 70 146 9.0 19.0 0.00 0.00 0.00 67 1001.7
20180921182204 70 156 8.0 17.0 0.00 0.00 0.00 67 1001.7
20180921181704 70 162 9.0 16.0 0.00 0.00 0.00 67 1001.9
20180921181204 70 138 9.0 15.0 0.00 0.00 0.00 66 1001.9
20180921180706 70 158 8.0 15.0 0.00 0.00 0.00 66 1002.0
20180921180206 70 167 8.0 16.0 0.00 0.00 0.00 66 1002.1
20180921175704 70 150 8.0 16.0 0.00 0.00 0.00 66 1002.2
20180921175205 70 178 9.0 16.0 0.00 0.00 0.00 66 1002.3
20180921174706 70 173 9.0 16.0 0.00 0.00 0.00 66 1002.3
20180921174204 70 163 9.0 16.0 0.00 0.00 0.00 66 1002.4
20180921173704 70 165 9.0 18.0 0.00 0.00 0.00 66 1002.5
20180921173204 70 169 9.0 18.0 0.00 0.00 0.00 65 1002.5
20180921172704 71 178 9.0 19.0 0.00 0.00 0.00 65 1002.6
20180921172205 71 150 9.0 19.0 0.00 0.00 0.00 65 1002.7
20180921171704 71 167 10.0 18.0 0.00 0.00 0.00 65 1002.7
20180921171206 70 146 9.0 17.0 0.00 0.00 0.00 65 1002.8
20180921170704 70 185 10.0 17.0 0.00 0.00 0.00 65 1002.9
20180921170206 71 167 9.0 17.0 0.00 0.00 0.00 65 1002.9
20180921165704 71 168 9.0 17.0 0.00 0.00 0.00 65 1002.9
20180921165206 71 141 9.0 16.0 0.00 0.00 0.00 65 1003.0
20180921164705 71 146 9.0 17.0 0.00 0.00 0.00 65 1003.1
20180921164205 71 202 10.0 17.0 0.00 0.00 0.00 65 1003.1
20180921163705 71 185 10.0 20.0 0.00 0.00 0.00 65 1003.2
20180921163204 71 163 9.0 20.0 0.00 0.00 0.00 65 1003.2
20180921162705 71 163 9.0 20.0 0.00 0.00 0.00 65 1003.2
20180921162204 71 166 9.0 16.0 0.00 0.00 0.00 65 1003.3
20180921161705 71 174 9.0 17.0 0.00 0.00 0.00 64 1003.3
20180921161204 71 130 9.0 17.0 0.00 0.00 0.00 64 1003.4
20180921160704 71 176 9.0 16.0 0.00 0.00 0.00 64 1003.5
20180921160205 72 173 9.0 17.0 0.00 0.00 0.00 64 1003.6
20180921155704 72 170 10.0 17.0 0.00 0.00 0.00 63 1003.7
20180921155204 72 180 9.0 17.0 0.00 0.00 0.00 63 1003.7
20180921154705 72 177 9.0 18.0 0.00 0.00 0.00 63 1003.7
20180921154204 72 157 9.0 19.0 0.00 0.00 0.00 63 1003.8
20180921153704 72 150 9.0 19.0 0.00 0.00 0.00 63 1003.9
20180921153204 73 130 9.0 19.0 0.00 0.00 0.00 63 1004.0
20180921152704 73 155 9.0 19.0 0.00 0.00 0.00 63 1004.0
20180921152205 73 182 9.0 20.0 0.00 0.00 0.00 62 1004.1
20180921151704 73 177 10.0 20.0 0.00 0.00 0.00 62 1004.2
20180921151205 73 174 10.0 22.0 0.00 0.00 0.00 62 1004.2
20180921150704 73 167 11.0 22.0 0.00 0.00 0.00 61 1004.3
20180921150204 74 169 11.0 22.0 0.00 0.00 0.00 62 1004.3
20180921145706 74 163 10.0 19.0 0.00 0.00 0.00 61 1004.4
20180921145205 74 200 10.0 18.0 0.00 0.00 0.00 62 1004.5
20180921144704 74 138 9.0 18.0 0.00 0.00 0.00 62 1004.6
20180921144208 73 177 9.0 20.0 0.00 0.00 0.00 62 1004.7
20180921143704 73 148 10.0 22.0 0.00 0.00 0.00 62 1004.7
20180921143205 73 186 10.0 22.0 0.00 0.00 0.00 62 1004.9
20180921142711 73 162 10.0 20.0 0.00 0.00 0.00 62 1004.9
20180921142205 73 174 11.0 20.0 0.00 0.00 0.00 61 1005.0
20180921141705 74 175 12.0 20.0 0.00 0.00 0.00 61 1005.1
20180921141204 74 172 11.0 18.0 0.00 0.00 0.00 61 1005.1
20180921140704 74 176 10.0 18.0 0.00 0.00 0.00 61 1005.2
20180921140204 74 175 9.0 17.0 0.00 0.00 0.00 61 1005.3
20180921135705 74 158 9.0 20.0 0.00 0.00 0.00 60 1005.4
20180921135204 74 182 10.0 21.0 0.00 0.00 0.00 61 1005.4
20180921134705 74 163 11.0 21.0 0.00 0.00 0.00 61 1005.5
20180921134204 74 167 11.0 17.0 0.00 0.00 0.00 60 1005.6
20180921133704 74 161 10.0 22.0 0.00 0.00 0.00 61 1005.6
20180921133206 74 177 11.0 22.0 0.00 0.00 0.00 61 1005.7
20180921132705 74 154 11.0 22.0 0.00 0.00 0.00 60 1005.7
20180921132205 74 171 11.0 22.0 0.00 0.00 0.00 60 1005.9
20180921131705 74 182 11.0 22.0 0.00 0.00 0.00 60 1005.8
20180921131205 74 187 9.0 22.0 0.00 0.00 0.00 60 1006.0
20180921130705 74 153 9.0 22.0 0.00 0.00 0.00 61 1006.2
20180921130205 74 160 9.0 20.0 0.00 0.00 0.00 61 1006.2
20180921125704 73 180 10.0 20.0 0.00 0.00 0.00 61 1006.2
20180921125204 73 188 9.0 20.0 0.00 0.00 0.00 61 1006.4
20180921124704 73 133 8.0 17.0 0.00 0.00 0.00 61 1006.5
20180921124205 72 175 9.0 17.0 0.00 0.00 0.00 64 1006.5
20180921123705 71 143 8.0 17.0 0.00 0.00 0.00 63 1006.6
20180921123208 71 176 8.0 16.0 0.00 0.00 0.00 63 1006.7
20180921122705 71 142 8.0 19.0 0.00 0.00 0.00 62 1006.8
20180921122205 71 166 9.0 19.0 0.00 0.00 0.00 62 1006.9
20180921121705 71 174 11.0 19.0 0.00 0.00 0.00 63 1007.1
20180921121204 70 184 9.0 19.0 0.00 0.00 0.00 63 1007.2
20180921120704 70 176 8.0 18.0 0.00 0.00 0.00 62 1007.3
20180921120204 71 183 10.0 18.0 0.00 0.00 0.00 62 1007.4
20180921115705 71 164 10.0 18.0 0.00 0.00 0.00 63 1007.4
20180921115205 70 188 9.0 18.0 0.00 0.00 0.00 63 1007.4
20180921114705 70 170 10.0 16.0 0.00 0.00 0.00 64 1007.5
20180921114204 70 167 9.0 20.0 0.00 0.00 0.00 64 1007.6
20180921113704 70 165 10.0 20.0 0.00 0.00 0.00 64 1007.7
20180921113204 70 177 11.0 20.0 0.00 0.00 0.00 65 1007.8
20180921112706 70 184 10.0 20.0 0.00 0.00 0.00 65 1007.8
20180921112206 71 192 9.0 16.0 0.00 0.00 0.00 64 1007.9
20180921111704 71 167 9.0 16.0 0.00 0.00 0.00 65 1007.9
20180921111205 71 155 7.0 14.0 0.00 0.00 0.00 65 1008.0
20180921110705 71 175 7.0 14.0 0.00 0.00 0.00 64 1008.1
20180921110205 71 195 7.0 17.0 0.00 0.00 0.00 65 1008.2
20180921105706 71 195 7.0 18.0 0.00 0.00 0.00 65 1008.2
20180921105204 71 179 8.0 18.0 0.00 0.00 0.00 66 1008.3
20180921104705 71 199 9.0 17.0 0.00 0.00 0.00 65 1008.4
20180921104205 71 202 9.0 18.0 0.00 0.00 0.00 65 1008.5
20180921103705 71 189 11.0 18.0 0.00 0.00 0.00 65 1008.5
20180921103204 71 178 10.0 17.0 0.00 0.00 0.00 66 1008.5
20180921102703 71 192 9.0 15.0 0.00 0.00 0.00 66 1008.6
20180921102205 70 180 8.0 17.0 0.00 0.00 0.00 66 1008.7
20180921101708 70 222 10.0 17.0 0.00 0.00 0.00 68 1008.8
20180921101204 69 205 11.0 18.0 0.00 0.00 0.00 67 1008.8
20180921100704 70 214 11.0 20.0 0.00 0.00 0.00 66 1008.8
20180921100204 70 215 12.0 22.0 0.00 0.00 0.00 67 1008.9
20180921095706 69 164 12.0 22.0 0.00 0.00 0.00 68 1008.8
20180921095205 69 177 11.0 22.0 0.00 0.00 0.00 68 1008.9
20180921094705 69 182 10.0 19.0 0.00 0.00 0.00 68 1008.9
20180921094205 69 199 9.0 19.0 0.00 0.00 0.00 68 1009.0
20180921093705 69 188 11.0 19.0 0.00 0.00 0.00 68 1009.1
20180921093204 69 185 11.0 18.0 0.00 0.00 0.00 69 1009.1
20180921092704 69 217 9.0 21.0 0.00 0.00 0.00 70 1009.2
20180921092204 67 211 10.0 21.0 0.00 0.00 0.00 71 1009.2
20180921091704 67 198 12.0 21.0 0.00 0.00 0.00 71 1009.3
20180921091205 67 225 12.0 17.0 0.00 0.00 0.00 71 1009.3
20180921090705 67 212 10.0 20.0 0.00 0.00 0.00 72 1009.3
20180921090204 67 194 10.0 20.0 0.00 0.00 0.00 72 1009.3
20180921085704 66 180 11.0 18.0 0.00 0.00 0.00 73 1009.5
20180921085205 66 188 10.0 23.0 0.00 0.00 0.00 73 1009.5
20180921084704 65 197 11.0 23.0 0.00 0.00 0.00 73 1009.5
20180921084205 66 207 10.0 23.0 0.00 0.00 0.00 72 1009.6
20180921083704 66 189 9.0 20.0 0.00 0.00 0.00 73 1009.6
20180921083205 66 196 10.0 19.0 0.00 0.00 0.00 73 1009.6
20180921082705 65 190 11.0 19.0 0.00 0.00 0.00 74 1009.5
20180921082205 64 202 9.0 19.0 0.00 0.00 0.00 75 1009.6
20180921081706 63 175 9.0 19.0 0.00 0.00 0.00 75 1009.6
20180921081206 63 201 10.0 20.0 0.00 0.00 0.00 75 1009.7
20180921080705 63 166 10.0 20.0 0.00 0.00 0.00 75 1009.6
20180921080205 63 178 10.0 20.0 0.00 0.00 0.00 75 1009.6
20180921075704 63 166 9.0 20.0 0.00 0.00 0.00 75 1009.5
20180921075204 63 213 10.0 18.0 0.00 0.00 0.00 75 1009.5
20180921074704 62 202 9.0 21.0 0.00 0.00 0.00 76 1009.5
20180921074205 62 211 9.0 21.0 0.00 0.00 0.00 76 1009.6
20180921073704 62 186 9.0 21.0 0.00 0.00 0.00 76 1009.5
20180921073205 62 187 10.0 21.0 0.00 0.00 0.00 76 1009.7
20180921072705 62 216 10.0 21.0 0.00 0.00 0.00 76 1009.7
20180921072204 62 229 9.0 18.0 0.00 0.00 0.00 76 1009.7
20180921071704 62 209 8.0 17.0 0.00 0.00 0.00 76 1009.7
20180921071205 62 208 9.0 18.0 0.00 0.00 0.00 76 1009.7
20180921070704 61 197 9.0 18.0 0.00 0.00 0.00 77 1009.7
20180921070204 61 208 8.0 18.0 0.00 0.00 0.00 77 1009.8
20180921065704 61 185 8.0 15.0 0.00 0.00 0.00 77 1009.8
20180921065205 60 198 7.0 15.0 0.00 0.00 0.00 78 1010.0
20180921064704 60 193 6.0 15.0 0.00 0.00 0.00 78 1010.0
20180921064205 60 202 7.0 15.0 0.00 0.00 0.00 78 1009.9
20180921063705 60 200 8.0 15.0 0.00 0.00 0.00 78 1010.0
20180921063204 60 222 6.0 16.0 0.00 0.00 0.00 78 1009.9
20180921062704 60 205 6.0 16.0 0.00 0.00 0.00 78 1009.9
20180921062204 60 213 8.0 15.0 0.00 0.00 0.00 78 1009.9
20180921061704 60 214 8.0 13.0 0.00 0.00 0.00 78 1009.9
20180921061204 60 178 8.0 16.0 0.00 0.00 0.00 78 1010.0
20180921060704 60 190 8.0 16.0 0.00 0.00 0.00 78 1009.9
20180921060205 60 196 8.0 16.0 0.00 0.00 0.00 78 1009.7
20180921055705 60 184 8.0 16.0 0.00 0.00 0.00 78 1009.7
20180921055205 60 200 8.0 14.0 0.00 0.00 0.00 78 1009.7
20180921054704 60 170 6.0 14.0 0.00 0.00 0.00 78 1009.7
20180921054205 60 210 7.0 14.0 0.00 0.00 0.00 78 1009.7
20180921053704 59 196 7.0 14.0 0.00 0.00 0.00 78 1009.6
20180921053205 59 197 6.0 12.0 0.00 0.00 0.00 78 1009.6
20180921052704 59 195 6.0 12.0 0.00 0.00 0.00 78 1009.7
20180921052206 59 198 6.0 11.0 0.00 0.00 0.00 78 1009.8
20180921051704 59 212 7.0 11.0 0.00 0.00 0.00 79 1009.8
20180921051204 59 200 7.0 11.0 0.00 0.00 0.00 79 1009.9
20180921050704 59 190 6.0 10.0 0.00 0.00 0.00 79 1009.7
20180921050204 59 198 6.0 10.0 0.00 0.00 0.00 79 1009.7
20180921045705 59 196 6.0 10.0 0.00 0.00 0.00 79 1009.8